Location: Home
(42.5358°N, 72.7383°W)
Time: 15:05:14
(UTC-04:00)

Kosmos-337 - Pass Details

Date: 12 July 2022
Orbit: 1467 x 1552 km, 74.0° (Epoch: 18 August)

Event Time Altitude Azimuth Distance (km) Brightness Sun altitude
Rises 21:21:59 0° 341° (NNW) 4,733 ? -8.8°
Reaches altitude 10° 21:28:56 10° 17° (NNE) 3,739 ? -9.8°
Maximum altitude 21:30:50 11° 29° (NNE) 3,679 ? -10.0°
Drops below altitude 10° 21:32:43 10° 41° (NE) 3,729 ? -10.3°
Sets 21:39:34 0° 77° (ENE) 4,687 ? -11.2°
